Location: Harwich
(41.7160°N, 69.9939°W)
Time: 13:49:52
(UTC+02:00)

Tiangong - Visible Passes

Search period start: 24 July 2024 00:00
Search period end: 03 August 2024 00:00
Orbit: 389 x 392 km, 41.5° (Epoch: 24 July)

Date Brightness Start Highest point End Pass type
(mag) Time Alt. Az. Time Alt. Az. Time Alt. Az.
25 Jul 0.5 03:33:17 10° SSW 03:33:17 10° SSW 03:33:17 10° SSW visible
26 Jul 0.0 02:36:52 10° SSE 02:37:58 11° SE 02:39:03 10° SE visible
26 Jul 0.2 04:11:20 10° SW 04:12:07 16° SW 04:12:07 16° SW visible
27 Jul -1.2 03:13:48 10° SW 03:16:40 30° SSE 03:17:57 22° ESE visible
27 Jul 0.9 04:50:13 10° W 04:50:20 11° W 04:50:20 11° W visible
28 Jul -2.2 03:52:23 10° WSW 03:55:34 65° SSE 03:55:42 64° SSE visible
29 Jul -1.8 02:54:36 10° WSW 02:57:41 47° SSE 03:00:46 10° E visible
29 Jul -0.5 04:31:21 10° W 04:33:06 29° W 04:33:06 29° W visible
30 Jul -2.2 03:33:23 10° W 03:36:36 82° S 03:37:56 32° E visible
31 Jul -2.1 02:35:26 10° WSW 02:38:37 68° SSE 02:41:48 10° E visible
31 Jul -1.6 04:12:20 10° W 04:14:55 54° W 04:14:55 54° W visible
01 Aug -2.2 03:14:18 10° W 03:17:31 88° S 03:19:29 21° E visible
01 Aug 0.7 04:51:16 10° W 04:51:47 14° W 04:51:47 14° W visible
02 Aug -2.1 03:53:10 10° W 03:56:15 67° SSW 03:56:15 67° SSW visible
